AMQ6019 EPKT-LIEO

Flight info

Callsign AMQ6019
Flight time N/A
Altitude 36000
Route TUSIN DCT TOVKA DCT RADLY DCT RIFEN/N0449F370 DCT ARDAM DCT BIKTU DCT ELKAP DCT DEDOM DCT BATOX
Aircraft A320/M-SDE3FGHIRWY/LB1

Departure

Time 2026-04-29 19:49
Airport Katowice Wojciech Korfanty International Airport (EPKT)

Arrival

Time N/A
Airport Olbia Costa Smeralda Airport (LIEO)
Time Latitude Longitude Altitude Speed Heading
2026-04-29 19:31 50.47149 19.07076 981 ft 0 kts 182°
2026-04-29 19:41 50.47155 19.07077 981 ft 2 kts 177°
2026-04-29 19:41 50.47170 19.07075 981 ft 2 kts 179°
2026-04-29 19:41 50.47186 19.07075 981 ft 2 kts 178°
2026-04-29 19:42 50.47201 19.07074 980 ft 2 kts 179°
2026-04-29 19:42 50.47212 19.07074 980 ft 2 kts 178°
2026-04-29 19:42 50.47230 19.07073 980 ft 0 kts 178°
2026-04-29 19:42 50.47235 19.07072 980 ft 0 kts 214°
2026-04-29 19:43 50.47238 19.07078 980 ft 0 kts 264°
2026-04-29 19:43 50.47238 19.07087 980 ft 1 kts 271°
2026-04-29 19:43 50.47238 19.07090 980 ft 0 kts 271°
2026-04-29 19:45 50.47238 19.07061 979 ft 6 kts 270°
2026-04-29 19:45 50.47238 19.06930 978 ft 20 kts 270°
2026-04-29 19:45 50.47242 19.06673 977 ft 23 kts 287°
2026-04-29 19:45 50.47379 19.06622 975 ft 21 kts 351°
2026-04-29 19:46 50.47431 19.06431 974 ft 20 kts 271°
2026-04-29 19:46 50.47432 19.06205 972 ft 21 kts 268°
2026-04-29 19:46 50.47458 19.05988 971 ft 20 kts 326°
2026-04-29 19:46 50.47503 19.05977 970 ft 0 kts
2026-04-29 19:48 50.47508 19.05978 970 ft 4 kts
2026-04-29 19:48 50.47601 19.06025 968 ft 21 kts 60°
2026-04-29 19:49 50.47604 19.06397 971 ft 63 kts 90°
2026-04-29 19:49 50.47602 19.07452 978 ft 128 kts 90°
2026-04-29 19:49 50.47598 19.09099 1115 ft 167 kts 90°
2026-04-29 19:49 50.47596 19.10903 1749 ft 166 kts 89°
2026-04-29 19:50 50.47604 19.12710 2396 ft 170 kts 89°
2026-04-29 19:50 50.47579 19.14560 2968 ft 165 kts 90°
2026-04-29 19:50 50.47551 19.16422 3193 ft 182 kts 90°
2026-04-29 19:50 50.47526 19.18547 3621 ft 204 kts 92°
2026-04-29 19:51 50.47092 19.20755 4125 ft 225 kts 126°
2026-04-29 19:51 50.45808 19.22227 4634 ft 244 kts 165°
2026-04-29 19:51 50.44145 19.22462 5182 ft 259 kts 181°
2026-04-29 19:51 50.42313 19.22361 5894 ft 269 kts 183°
2026-04-29 19:52 50.40468 19.22253 6779 ft 272 kts 183°
2026-04-29 19:52 50.38573 19.22185 7682 ft 275 kts 182°
2026-04-29 19:52 50.36673 19.22149 8566 ft 277 kts 182°
2026-04-29 19:52 50.34755 19.22129 9446 ft 279 kts 182°
2026-04-29 19:53 50.32866 19.21869 10291 ft 278 kts 198°
2026-04-29 19:53 50.31151 19.20569 11084 ft 277 kts 219°
2026-04-29 19:53 50.29867 19.18301 11506 ft 292 kts 241°
2026-04-29 19:53 50.29224 19.15232 11845 ft 311 kts 263°
2026-04-29 19:54 50.28535 19.08482 13145 ft 324 kts 239°
2026-04-29 19:54 50.27021 19.05978 13920 ft 328 kts 218°
2026-04-29 19:54 50.25120 19.04019 14657 ft 332 kts 214°
2026-04-29 19:55 50.23149 19.02059 15313 ft 337 kts 216°
2026-04-29 19:55 50.21222 19.00036 15974 ft 340 kts 217°
2026-04-29 19:55 50.19291 18.97908 16633 ft 344 kts 219°
2026-04-29 19:55 50.17366 18.95719 17271 ft 347 kts 220°
2026-04-29 19:56 50.15431 18.93475 17897 ft 351 kts 220°
2026-04-29 19:56 50.13502 18.91215 18511 ft 355 kts 221°
2026-04-29 19:56 50.11527 18.88889 19119 ft 358 kts 221°
2026-04-29 19:56 50.09541 18.86543 19705 ft 362 kts 221°
2026-04-29 19:57 50.07533 18.84170 20278 ft 365 kts 221°
2026-04-29 19:57 50.06184 18.82576 20654 ft 368 kts 221°
2026-04-29 19:57 50.03452 18.79350 21388 ft 373 kts 222°
2026-04-29 19:57 50.01405 18.76934 21909 ft 376 kts 222°
2026-04-29 19:58 49.99305 18.74458 22422 ft 380 kts 222°
2026-04-29 19:58 49.97205 18.71985 22920 ft 384 kts 222°
2026-04-29 19:58 49.95069 18.69471 23414 ft 388 kts 222°
2026-04-29 19:58 49.92911 18.66935 23896 ft 391 kts 223°
2026-04-29 19:59 49.90738 18.64384 24299 ft 395 kts 223°
2026-04-29 19:59 49.88556 18.61833 24400 ft 397 kts 223°
2026-04-29 19:59 49.86369 18.59290 24404 ft 396 kts 223°
2026-04-29 19:59 49.84168 18.56780 24406 ft 397 kts 221°
2026-04-29 20:00 49.81941 18.54368 24406 ft 397 kts 221°
2026-04-29 20:00 49.79755 18.52001 24405 ft 397 kts 221°
2026-04-29 20:00 49.77452 18.49510 24405 ft 397 kts 221°
2026-04-29 20:00 49.75192 18.47066 24404 ft 397 kts 221°
2026-04-29 20:01 49.72939 18.44632 24405 ft 397 kts 221°
2026-04-29 20:01 49.70690 18.42207 24406 ft 397 kts 221°
2026-04-29 20:01 49.68416 18.39756 24406 ft 397 kts 221°
2026-04-29 20:01 49.66204 18.37376 24406 ft 397 kts 221°
2026-04-29 20:02 49.63959 18.34962 24406 ft 397 kts 220°
2026-04-29 20:02 49.61714 18.32543 24412 ft 399 kts 220°
2026-04-29 20:02 49.59432 18.30079 24669 ft 404 kts 220°
2026-04-29 20:02 49.57919 18.28451 25034 ft 404 kts 220°
2026-04-29 20:03 49.54867 18.25178 25685 ft 407 kts 220°
2026-04-29 20:03 49.52539 18.22685 26090 ft 410 kts 220°
2026-04-29 20:03 49.50217 18.20204 26481 ft 414 kts 220°
2026-04-29 20:03 49.47862 18.17690 26859 ft 417 kts 220°
2026-04-29 20:04 49.45567 18.15244 27222 ft 420 kts 220°
2026-04-29 20:04 49.43160 18.12683 27593 ft 423 kts 220°
2026-04-29 20:04 49.40731 18.10103 27947 ft 427 kts 221°
2026-04-29 20:04 49.38338 18.07562 28280 ft 430 kts 221°
2026-04-29 20:05 49.35907 18.04984 28611 ft 433 kts 221°
2026-04-29 20:05 49.33475 18.02411 29004 ft 434 kts 221°
2026-04-29 20:05 49.31085 17.99887 29459 ft 433 kts 221°
2026-04-29 20:05 49.28577 17.97242 29924 ft 433 kts 221°
2026-04-29 20:06 49.26099 17.94629 30339 ft 433 kts 221°
2026-04-29 20:06 49.23634 17.92033 30733 ft 434 kts 221°
2026-04-29 20:06 49.21132 17.89400 31136 ft 434 kts 221°
2026-04-29 20:06 49.18643 17.86784 31540 ft 434 kts 221°
2026-04-29 20:07 49.16147 17.84163 31918 ft 435 kts 221°
2026-04-29 20:07 49.13689 17.81586 32284 ft 435 kts 221°
2026-04-29 20:07 49.11172 17.78952 32647 ft 435 kts 222°
2026-04-29 20:07 49.08696 17.76366 32960 ft 437 kts 222°
2026-04-29 20:08 49.06177 17.73737 33232 ft 439 kts 223°
2026-04-29 20:08 49.04510 17.71998 33408 ft 440 kts 223°
2026-04-29 20:08 49.01130 17.68474 33714 ft 444 kts 223°
2026-04-29 20:08 48.98566 17.65805 33918 ft 448 kts 223°
2026-04-29 20:09 48.96008 17.63143 34112 ft 451 kts 223°
2026-04-29 20:09 48.93413 17.60447 34315 ft 454 kts 223°
2026-04-29 20:09 48.90791 17.57725 34597 ft 455 kts 223°
2026-04-29 20:09 48.88200 17.55048 34866 ft 456 kts 223°
2026-04-29 20:10 48.85595 17.52375 35097 ft 457 kts 223°
2026-04-29 20:10 48.82961 17.49673 35309 ft 458 kts 223°
2026-04-29 20:10 48.80325 17.46965 35525 ft 458 kts 223°
2026-04-29 20:10 48.77710 17.44279 35737 ft 459 kts 223°
2026-04-29 20:11 48.75044 17.41540 35948 ft 459 kts 223°
2026-04-29 20:11 48.72411 17.38839 36139 ft 460 kts 223°
2026-04-29 20:11 48.69757 17.36116 36301 ft 462 kts 223°
2026-04-29 20:11 48.67099 17.33386 36321 ft 463 kts 223°
2026-04-29 20:12 48.61780 17.27923 36330 ft 463 kts 223°
2026-04-29 20:12 48.56468 17.22495 36330 ft 463 kts 223°
2026-04-29 20:13 48.51117 17.17048 36331 ft 464 kts 222°
2026-04-29 20:13 48.45747 17.11599 36332 ft 465 kts 222°
2026-04-29 20:14 48.40387 17.06175 36332 ft 465 kts 222°
2026-04-29 20:14 48.35067 17.00811 36331 ft 464 kts 223°
2026-04-29 20:15 48.29671 16.95382 36332 ft 467 kts 224°
2026-04-29 20:15 48.24382 16.89843 36336 ft 465 kts 227°
2026-04-29 20:16 48.19188 16.84146 36340 ft 465 kts 228°
2026-04-29 20:16 48.14003 16.78463 36346 ft 466 kts 229°
2026-04-29 20:17 48.08802 16.72769 36351 ft 466 kts 229°
2026-04-29 20:17 48.03623 16.67121 36354 ft 466 kts 229°
2026-04-29 20:18 47.98409 16.61456 36356 ft 466 kts 229°
2026-04-29 20:18 47.93208 16.55820 36356 ft 466 kts 229°
2026-04-29 20:19 47.88113 16.50321 36351 ft 466 kts 229°